Flag for United Kingdom Weather past 2 weeks in Nottingham, England, United Kingdom

Now
54 °F

Sunny.


Feels Like: 48 °F
Forecast: N/A
Wind: 21 mph from Southwest

Location: East Midlands

Current Time: Mar 6, 2015 at 2:47:32 PM

Latest Report: Mar 6, 2015 at 2:20 PM


Visibility: 10 mi

Pressure: 30.36 "Hg

Humidity: 54%

Dew point: 37 °F

Location of NottinghamLocation

Historic Weather in Nottingham — Graph

°F

Nottingham temperature yesterday

Maximum temperature yesterday: 48 °F (at 12:50 PM)
Minimum temperature yesterday: 36 °F (at 2:50 AM)
Average temperature yesterday: 43 °F

Past Weeks' High & Low Weather Summary

 TemperatureHumidityPressure
High52 °F (Feb 26, 10:20 AM)100% (Feb 20, 3:20 AM)30.66 "Hg (Feb 20, 3:20 AM)
Low32 °F (Feb 22, 2:20 AM)49% (Mar 2, 3:50 PM)29.09 "Hg (Feb 23, 6:20 PM)
Average41 °F79%29.79 "Hg
* Reported Feb 19 1:20 PM — Mar 6 1:50 PM, Nottingham, Weather by CustomWeather, © 2015

Note: Actual official high and low records may vary slightly from our data, if they occured in-between our weather recording intervals... More about our weather records

Advertising

Nottingham weather history for previous 24 hours

 ConditionsComfort  
Time TempWeatherWind HumidityBarometerVisibility
1:50 PM
Fri, Mar 6
52 °FSunny.21 mph58%30.39 "Hg10 mi
1:20 PM52 °FSunny.22 mph58%30.39 "Hg10 mi
12:50 PM50 °FPassing clouds.21 mph62%30.42 "HgN/A
12:20 PM50 °FPassing clouds.22 mph62%30.42 "HgN/A
11:50 AM50 °FScattered clouds.21 mph62%30.42 "HgN/A
11:20 AM48 °FScattered clouds.18 mph66%30.45 "HgN/A
10:50 AM46 °FPartly sunny.17 mph71%30.45 "HgN/A
10:20 AM46 °FPartly sunny.18 mph71%30.45 "HgN/A
9:50 AM46 °FPartly sunny.15 mph71%30.48 "HgN/A
9:20 AM46 °FPartly sunny.15 mph71%30.51 "HgN/A
8:50 AM45 °FPartly sunny.14 mph76%30.51 "HgN/A
8:20 AM45 °FPartly sunny.12 mph76%30.51 "HgN/A
7:50 AM45 °FPartly sunny.13 mph76%30.51 "HgN/A
7:20 AM43 °FPartly sunny.9 mph81%30.51 "HgN/A
6:50 AM43 °FPartly sunny.10 mph76%30.51 "HgN/A
5:50 AM45 °FPassing clouds.13 mph71%30.51 "HgN/A
5:20 AM45 °FPassing clouds.12 mph71%30.51 "HgN/A
4:50 AM45 °FPassing clouds.12 mph71%30.51 "HgN/A
4:20 AM45 °FPassing clouds.10 mph71%30.51 "HgN/A
3:50 AM45 °FPassing clouds.13 mph71%30.51 "HgN/A
3:20 AM45 °FPassing clouds.12 mph71%30.51 "HgN/A
2:50 AM45 °FPassing clouds.13 mph71%30.54 "HgN/A
2:20 AM45 °FPassing clouds.13 mph71%30.54 "HgN/A
12:50 AM45 °FPassing clouds.15 mph71%30.54 "HgN/A
12:20 AM45 °FPassing clouds.13 mph71%30.54 "HgN/A
11:50 PM
Thu, Mar 5
45 °FPassing clouds.12 mph71%30.54 "HgN/A
11:20 PM45 °FPassing clouds.12 mph71%30.54 "HgN/A
10:50 PM45 °FPassing clouds.13 mph71%30.57 "HgN/A
10:20 PM46 °FPassing clouds.13 mph66%30.57 "HgN/A
9:50 PM46 °FPassing clouds.12 mph66%30.57 "HgN/A
9:20 PM46 °FPassing clouds.12 mph66%30.57 "HgN/A
8:20 PM46 °FPassing clouds.12 mph66%30.57 "HgN/A
7:50 PM46 °FPassing clouds.10 mph66%30.57 "HgN/A
7:20 PM46 °FPassing clouds.13 mph66%30.57 "HgN/A
6:50 PM46 °FPassing clouds.15 mph66%30.57 "HgN/A
6:20 PM46 °FPassing clouds.14 mph66%30.57 "HgN/A
5:50 PM46 °FPassing clouds.15 mph66%30.57 "HgN/A
5:20 PM46 °FPartly sunny.15 mph71%30.57 "HgN/A
4:50 PM46 °FPartly sunny.21 mph66%30.57 "HgN/A
4:20 PM48 °FPartly sunny.20 mph62%30.57 "HgN/A
3:50 PM48 °FPartly sunny.18 mph66%30.57 "HgN/A
3:20 PM48 °FPartly sunny.20 mph66%30.57 "HgN/A
2:50 PM48 °FPartly sunny.21 mph66%30.57 "HgN/A
2:20 PM48 °FPartly sunny.24 mph66%30.60 "HgN/A
Weather by CustomWeather, © 2015

See weather overviewHow to use our weather pages